TimeEDT,TemperatureF,Dew PointF,Humidity,Sea Level PressureIn,VisibilityMPH,Wind Direction,Wind SpeedMPH,Gust SpeedMPH,PrecipitationIn,Events,Conditions,WindDirDegrees,DateUTC
12:13 AM,30.2,21.2,69,29.93,10.0,Variable,3.5,-,N/A,,Overcast,0,2013-03-23 04:13:00
12:54 AM,30.9,21.9,69,29.97,10.0,WNW,4.6,-,N/A,,Overcast,290,2013-03-23 04:54:00
1:54 AM,30.9,23.0,72,29.97,10.0,NW,3.5,-,N/A,,Overcast,310,2013-03-23 05:54:00
2:50 AM,30.2,23.0,75,29.92,10.0,Variable,3.5,-,N/A,,Overcast,0,2013-03-23 06:50:00
2:54 AM,30.9,21.9,69,29.96,10.0,Calm,Calm,-,N/A,,Overcast,0,2013-03-23 06:54:00
3:54 AM,30.9,23.0,72,29.94,10.0,Variable,4.6,-,N/A,,Overcast,0,2013-03-23 07:54:00
4:54 AM,30.9,23.0,72,29.95,10.0,Calm,Calm,-,N/A,,Overcast,0,2013-03-23 08:54:00
5:54 AM,30.9,23.0,72,29.96,10.0,NNW,4.6,-,N/A,,Overcast,340,2013-03-23 09:54:00
6:54 AM,30.9,24.1,76,29.97,10.0,NNW,4.6,-,N/A,,Overcast,340,2013-03-23 10:54:00
7:54 AM,30.9,24.1,76,29.98,10.0,NW,6.9,-,N/A,,Overcast,320,2013-03-23 11:54:00
8:20 AM,32.0,24.8,75,29.93,10.0,WNW,5.8,-,N/A,,Overcast,290,2013-03-23 12:20:00
9:34 AM,33.8,23.0,65,29.93,10.0,NW,10.4,-,N/A,,Overcast,310,2013-03-23 13:34:00
9:54 AM,32.0,23.0,69,29.98,8.0,NW,10.4,17.3,0.00,Snow,Light Snow,310,2013-03-23 13:54:00
10:04 AM,33.8,23.0,65,29.93,9.0,NW,8.1,17.3,0.00,,Overcast,310,2013-03-23 14:04:00
10:54 AM,34.0,23.0,64,29.99,10.0,West,9.2,-,0.00,,Overcast,280,2013-03-23 14:54:00
11:54 AM,35.1,23.0,61,30.00,10.0,NW,11.5,19.6,N/A,,Overcast,310,2013-03-23 15:54:00
12:54 PM,37.9,24.1,57,30.00,10.0,WNW,15.0,-,0.00,,Overcast,300,2013-03-23 16:54:00
2:54 PM,37.0,21.0,52,29.99,10.0,West,13.8,19.6,0.00,,Overcast,280,2013-03-23 18:54:00
3:54 PM,39.0,23.0,53,29.99,10.0,WNW,10.4,19.6,N/A,,Overcast,300,2013-03-23 19:54:00
4:54 PM,39.0,21.9,50,29.99,10.0,WNW,13.8,24.2,N/A,,Overcast,300,2013-03-23 20:54:00
5:54 PM,37.9,21.9,53,30.00,10.0,WNW,12.7,-,0.00,,Overcast,300,2013-03-23 21:54:00
6:54 PM,37.0,21.9,54,30.01,10.0,WNW,8.1,-,N/A,,Mostly Cloudy,300,2013-03-23 22:54:00
7:54 PM,36.0,21.9,57,30.03,10.0,Variable,6.9,-,N/A,,Overcast,0,2013-03-23 23:54:00
8:54 PM,35.1,24.1,64,30.03,10.0,West,6.9,16.1,N/A,,Overcast,270,2013-03-24 00:54:00
9:54 PM,35.1,23.0,61,30.03,10.0,WNW,5.8,-,N/A,,Overcast,300,2013-03-24 01:54:00
10:54 PM,35.1,24.1,64,30.04,10.0,WNW,8.1,-,N/A,,Overcast,300,2013-03-24 02:54:00
11:54 PM,34.0,25.0,70,30.04,10.0,WNW,6.9,-,N/A,,Overcast,300,2013-03-24 03:54:00